Location: Unspecified
(50.2967°N, 0.0000°E)
Time: 02:58:01
(UTC+00:00)

USA 81 - Visible Passes

Search period start: 05 April 2026 00:00
Search period end: 15 April 2026 00:00
Orbit: 783 x 785 km, 85.0° (Epoch: 29 March)

Date Brightness Start Highest point End Pass type
(mag) Time Alt. Az. Time Alt. Az. Time Alt. Az.
5 Apr 6.2 20:10:10 10° SW 20:14:42 29° WNW 20:19:17 10° NNW visible
6 Apr 5.3 19:37:41 10° SSW 19:42:43 45° WNW 19:47:47 10° N visible
7 Apr 7.4 04:23:23 10° NNE 04:26:08 14° ENE 04:28:52 10° E visible
7 Apr 7.3 20:50:42 10° W 20:52:53 12° WNW 20:55:05 10° NW visible
8 Apr 7.0 20:16:56 10° WSW 20:20:40 19° WNW 20:24:26 10° NNW visible
9 Apr 6.3 19:43:59 10° SW 19:48:34 29° WNW 19:53:10 10° NNW visible
10 Apr 7.1 04:28:11 10° NNE 04:32:11 21° ENE 04:36:09 10° ESE visible
11 Apr 7.5 03:57:19 10° NNE 03:59:59 14° ENE 04:02:38 10° E visible
11 Apr 7.4 20:24:27 10° W 20:26:45 13° WNW 20:29:02 10° NW visible
12 Apr 7.1 19:50:44 10° WSW 19:54:32 20° WNW 19:58:21 10° NNW visible
13 Apr 6.3 04:33:24 10° N 04:38:07 32° ENE 04:42:48 10° SE visible
14 Apr 7.0 04:02:05 10° NNE 04:06:02 21° ENE 04:09:58 10° ESE visible
